QPF
0.37 0.35 0.26 0.16 0.15 0.22 0.30 0.39 0.41 0.47 0.50 0.37 0.20 0.15 0.16 0.13 0.12 0.10 0.04 0.04 0.15 0.20 0.18 0.19 0.19 0.22 0.24 0.20 0.17 0.17 0.17 0.16 0.13 0.07 0.02 0.01 0.04 0.06 0.03 0.00 0.00 0.00 0.00
0.41 0.32 0.22 0.15 0.14 0.18 0.21 0.28 0.31 0.30 0.28 0.21 0.15 0.10 0.09 0.10 0.10 0.06 0.03 0.01 0.05 0.10 0.10 0.14 0.17 0.22 0.25 0.23 0.19 0.17 0.17 0.15 0.14 0.12 0.07 0.02 0.01 0.03 0.05 0.03 0.01 0.00 0.00
0.24 0.21 0.19 0.14 0.12 0.13 0.14 0.16 0.19 0.17 0.13 0.09 0.06 0.03 0.02 0.04 0.04 0.04 0.02 0.01 0.00 0.01 0.02 0.04 0.08 0.14 0.20 0.24 0.22 0.18 0.16 0.14 0.13 0.14 0.13 0.06 0.02 0.00 0.02 0.05 0.05 0.02 0.01
0.10 0.09 0.07 0.05 0.03 0.03 0.03 0.05 0.05 0.04 0.03 0.01 0.01 0.01 0.01 0.00 0.00 0.00 0.00 0.00 0.00 0.00 0.00 0.01 0.02 0.06 0.13 0.19 0.18 0.18 0.17 0.15 0.14 0.16 0.15 0.10 0.04 0.01 0.00 0.02 0.07 0.08 0.05
0.05 0.04 0.03 0.01 0.01 0.01 0.00 0.00 0.00 0.00 0.01 0.00 0.00 0.00 0.00 0.00 0.00 0.00 0.00 0.00 0.00 0.00 0.00 0.00 0.00 0.01 0.04 0.09 0.14 0.14 0.13 0.14 0.14 0.15 0.19 0.15 0.08 0.03 0.01 0.00 0.03 0.08 0.08
0.03 0.03 0.02 0.01 0.00 0.00 0.00 0.00 0.00 0.00 0.00 0.00 0.00 0.00 0.00 0.00 0.00 0.00 0.00 0.00 0.00 0.00 0.00 0.00 0.00 0.00 0.01 0.02 0.05 0.08 0.09 0.11 0.10 0.11 0.19 0.22 0.16 0.09 0.03 0.01 0.01 0.04 0.06
0.02 0.02 0.01 0.00 0.00 0.00 0.00 0.00 0.00 0.00 0.00 0.00 0.00 0.00 0.00 0.00 0.00 0.00 0.00 0.00 0.00 0.00 0.00 0.00 0.00 0.00 0.00 0.01 0.02 0.04 0.07 0.11 0.12 0.10 0.13 0.19 0.20 0.16 0.08 0.02 0.01 0.02 0.02
0.01 0.02 0.01 0.00 0.00 0.00 0.00 0.00 0.00 0.00 0.00 0.00 0.00 0.00 0.00 0.00 0.00 0.00 0.00 0.00 0.00 0.00 0.00 0.00 0.00 0.00 0.00 0.00 0.00 0.01 0.03 0.07 0.11 0.11 0.10 0.13 0.18 0.18 0.13 0.05 0.02 0.03 0.05
0.02 0.02 0.01 0.00 0.00 0.00 0.00 0.00 0.00 0.00 0.00 0.00 0.00 0.00 0.00 0.00 0.00 0.00 0.00 0.00 0.00 0.00 0.00 0.00 0.00 0.00 0.00 0.00 0.00 0.00 0.01 0.02 0.05 0.08 0.10 0.11 0.14 0.18 0.20 0.16 0.10 0.07 0.09
0.03 0.02 0.01 0.01 0.00 0.00 0.00 0.00 0.00 0.00 0.00 0.00 0.00 0.00 0.00 0.00 0.00 0.00 0.00 0.00 0.00 0.00 0.00 0.00 0.00 0.00 0.00 0.00 0.00 0.00 0.00 0.00 0.02 0.06 0.08 0.09 0.10 0.14 0.19 0.25 0.27 0.23 0.18
0.08 0.07 0.05 0.03 0.02 0.01 0.00 0.00 0.00 0.00 0.00 0.00 0.00 0.00 0.00 0.00 0.00 0.00 0.00 0.00 0.00 0.00 0.00 0.00 0.00 0.00 0.00 0.00 0.00 0.00 0.00 0.01 0.01 0.05 0.07 0.08 0.11 0.14 0.19 0.29 0.40 0.49 0.49
0.17 0.16 0.14 0.12 0.09 0.05 0.02 0.01 0.00 0.00 0.00 0.00 0.00 0.00 0.00 0.00 0.00 0.00 0.00 0.00 0.00 0.00 0.00 0.00 0.00 0.00 0.00 0.00 0.00 0.01 0.01 0.01 0.01 0.03 0.06 0.08 0.11 0.13 0.14 0.19 0.29 0.44 0.56
0.18 0.20 0.20 0.20 0.19 0.15 0.09 0.04 0.01 0.00 0.00 0.00 0.00 0.00 0.00 0.00 0.00 0.00 0.00 0.00 0.00 0.00 0.00 0.00 0.00 0.00 0.00 0.00 0.00 0.01 0.01 0.01 0.01 0.01 0.04 0.08 0.12 0.15 0.17 0.19 0.22 0.28 0.38
0.14 0.17 0.19 0.20 0.22 0.22 0.19 0.13 0.07 0.03 0.01 0.00 0.00 0.00 0.00 0.00 0.00 0.00 0.00 0.00 0.00 0.00 0.00 0.00 0.00 0.00 0.00 0.00 0.00 0.01 0.01 0.02 0.02 0.02 0.04 0.07 0.12 0.17 0.21 0.23 0.23 0.23 0.26
0.06 0.08 0.11 0.14 0.19 0.22 0.23 0.19 0.12 0.07 0.03 0.00 0.00 0.00 0.00 0.00 0.00 0.00 0.00 0.00 0.01 0.00 0.00 0.00 0.00 0.00 0.00 0.00 0.01 0.01 0.02 0.03 0.05 0.05 0.05 0.05 0.07 0.07 0.08 0.09 0.12 0.13 0.13
0.01 0.02 0.05 0.07 0.11 0.15 0.19 0.21 0.19 0.13 0.06 0.02 0.00 0.00 0.00 0.00 0.00 0.00 0.00 0.00 0.00 0.00 0.00 0.00 0.00 0.00 0.00 0.00 0.00 0.01 0.02 0.04 0.06 0.07 0.07 0.05 0.06 0.05 0.03 0.02 0.03 0.03 0.03
0.00 0.00 0.01 0.02 0.04 0.07 0.11 0.15 0.19 0.19 0.12 0.06 0.03 0.01 0.00 0.00 0.00 0.00 0.00 0.00 0.00 0.00 0.00 0.00 0.00 0.01 0.01 0.01 0.00 0.01 0.01 0.03 0.05 0.09 0.08 0.06 0.03 0.03 0.02 0.01 0.01 0.01 0.01
0.00 0.00 0.00 0.00 0.01 0.01 0.03 0.06 0.11 0.16 0.17 0.13 0.09 0.04 0.01 0.00 0.00 0.00 0.00 0.00 0.00 0.00 0.00 0.00 0.00 0.01 0.02 0.02 0.01 0.01 0.03 0.04 0.05 0.06 0.06 0.05 0.03 0.02 0.01 0.01 0.00 0.00 0.00
0.00 0.00 0.00 0.00 0.00 0.00 0.00 0.01 0.02 0.05 0.09 0.12 0.14 0.13 0.08 0.03 0.01 0.00 0.00 0.00 0.00 0.00 0.00 0.00 0.01 0.01 0.03 0.04 0.03 0.02 0.03 0.05 0.04 0.04 0.04 0.04 0.02 0.01 0.00 0.00 0.00 0.00 0.00
0.00 0.00 0.00 0.00 0.00 0.00 0.00 0.00 0.00 0.01 0.02 0.04 0.07 0.12 0.13 0.10 0.04 0.02 0.00 0.00 0.00 0.00 0.00 0.00 0.01 0.02 0.04 0.06 0.05 0.03 0.04 0.05 0.04 0.03 0.02 0.01 0.00 0.00 0.00 0.00 0.00 0.00 0.00
0.00 0.00 0.00 0.00 0.00 0.00 0.00 0.00 0.00 0.00 0.00 0.01 0.01 0.03 0.05 0.07 0.07 0.04 0.01 0.00 0.00 0.00 0.00 0.01 0.02 0.03 0.05 0.08 0.08 0.05 0.03 0.03 0.04 0.02 0.01 0.00 0.00 0.00 0.00 0.00 0.00 0.00 0.00
0.00 0.00 0.00 0.00 0.00 0.00 0.00 0.00 0.00 0.00 0.00 0.00 0.00 0.00 0.01 0.03 0.03 0.03 0.02 0.01 0.00 0.00 0.00 0.00 0.02 0.03 0.04 0.05 0.04 0.03 0.03 0.02 0.04 0.03 0.01 0.00 0.00 0.00 0.00 0.00 0.00 0.00 0.00
0.01 0.01 0.01 0.01 0.00 0.00 0.00 0.00 0.00 0.00 0.00 0.00 0.00 0.00 0.00 0.01 0.02 0.02 0.02 0.01 0.00 0.00 0.00 0.00 0.01 0.02 0.03 0.04 0.05 0.05 0.03 0.02 0.03 0.03 0.01 0.00 0.00 0.00 0.00 0.00 0.00 0.00 0.00
0.04 0.03 0.02 0.02 0.01 0.00 0.00 0.00 0.00 0.00 0.00 0.00 0.00 0.00 0.00 0.01 0.03 0.03 0.02 0.02 0.01 0.00 0.00 0.00 0.00 0.01 0.03 0.06 0.08 0.11 0.12 0.09 0.08 0.06 0.03 0.02 0.01 0.00 0.00 0.00 0.00 0.00 0.00
0.07 0.05 0.04 0.03 0.02 0.01 0.00 0.00 0.00 0.00 0.00 0.00 0.00 0.00 0.01 0.02 0.04 0.04 0.02 0.01 0.01 0.00 0.00 0.00 0.01 0.03 0.07 0.13 0.16 0.17 0.18 0.14 0.11 0.07 0.03 0.02 0.02 0.00 0.00 0.00 0.00 0.00 0.00
0.10 0.08 0.06 0.04 0.03 0.01 0.00 0.00 0.00 0.00 0.00 0.00 0.00 0.00 0.02 0.04 0.06 0.05 0.03 0.01 0.01 0.00 0.00 0.00 0.02 0.04 0.07 0.10 0.15 0.13 0.12 0.10 0.08 0.05 0.02 0.01 0.01 0.01 0.00 0.00 0.00 0.00 0.00
MSLP
1013.53 1013.59 1013.57 1013.51 1013.46 1013.44 1013.47 1013.55 1013.66 1013.77 1013.88 1013.97 1014.04 1014.09 1014.13 1014.17 1014.22 1014.27 1014.32 1014.36 1014.40 1014.42 1014.45 1014.48 1014.54 1014.63 1014.78 1014.98 1015.24 1015.54 1015.89 1016.26 1016.66 1017.07 1017.48 1017.90 1018.30 1018.68 1019.03 1019.35 1019.63 1019.89 1020.13
1013.07 1013.15 1013.15 1013.12 1013.10 1013.11 1013.15 1013.23 1013.34 1013.46 1013.56 1013.65 1013.71 1013.76 1013.79 1013.82 1013.85 1013.89 1013.92 1013.96 1014.00 1014.03 1014.06 1014.10 1014.15 1014.22 1014.33 1014.48 1014.67 1014.90 1015.18 1015.51 1015.89 1016.30 1016.74 1017.20 1017.66 1018.09 1018.50 1018.87 1019.20 1019.50 1019.78
1012.55 1012.66 1012.71 1012.74 1012.77 1012.83 1012.92 1013.03 1013.15 1013.26 1013.37 1013.44 1013.49 1013.51 1013.52 1013.53 1013.53 1013.53 1013.55 1013.57 1013.59 1013.62 1013.65 1013.69 1013.74 1013.79 1013.87 1013.96 1014.09 1014.26 1014.48 1014.76 1015.09 1015.49 1015.94 1016.43 1016.92 1017.41 1017.87 1018.29 1018.66 1019.00 1019.33
1012.01 1012.14 1012.25 1012.36 1012.48 1012.61 1012.76 1012.92 1013.06 1013.19 1013.28 1013.34 1013.37 1013.36 1013.34 1013.30 1013.26 1013.23 1013.20 1013.19 1013.19 1013.20 1013.22 1013.26 1013.29 1013.34 1013.39 1013.45 1013.53 1013.64 1013.81 1014.03 1014.33 1014.71 1015.14 1015.63 1016.14 1016.66 1017.15 1017.61 1018.03 1018.42 1018.79
1011.48 1011.64 1011.81 1012.00 1012.21 1012.43 1012.65 1012.86 1013.04 1013.18 1013.27 1013.31 1013.32 1013.29 1013.23 1013.16 1013.08 1012.99 1012.92 1012.86 1012.82 1012.80 1012.80 1012.81 1012.83 1012.86 1012.89 1012.93 1012.99 1013.06 1013.19 1013.38 1013.64 1013.98 1014.39 1014.86 1015.37 1015.89 1016.40 1016.88 1017.34 1017.76 1018.17
1011.00 1011.17 1011.40 1011.66 1011.95 1012.25 1012.54 1012.80 1013.01 1013.16 1013.26 1013.30 1013.30 1013.26 1013.19 1013.09 1012.98 1012.85 1012.73 1012.62 1012.53 1012.46 1012.41 1012.39 1012.39 1012.40 1012.41 1012.44 1012.47 1012.53 1012.64 1012.79 1013.02 1013.33 1013.71 1014.15 1014.64 1015.14 1015.64 1016.13 1016.59 1017.04 1017.48
1010.62 1010.78 1011.03 1011.34 1011.68 1012.04 1012.38 1012.67 1012.91 1013.08 1013.19 1013.25 1013.26 1013.24 1013.17 1013.08 1012.96 1012.81 1012.66 1012.50 1012.34 1012.21 1012.11 1012.03 1011.99 1011.97 1011.96 1011.97 1012.00 1012.05 1012.14 1012.28 1012.48 1012.75 1013.10 1013.50 1013.94 1014.42 1014.89 1015.37 1015.83 1016.29 1016.75
1010.38 1010.50 1010.74 1011.05 1011.41 1011.78 1012.13 1012.44 1012.69 1012.87 1013.01 1013.10 1013.15 1013.17 1013.15 1013.10 1013.00 1012.86 1012.69 1012.49 1012.29 1012.09 1011.92 1011.78 1011.68 1011.61 1011.57 1011.55 1011.56 1011.60 1011.68 1011.80 1011.98 1012.22 1012.52 1012.88 1013.28 1013.71 1014.15 1014.61 1015.06 1015.52 1015.99
1010.28 1010.35 1010.54 1010.82 1011.15 1011.49 1011.81 1012.09 1012.33 1012.52 1012.68 1012.82 1012.93 1013.02 1013.08 1013.09 1013.05 1012.95 1012.79 1012.58 1012.34 1012.09 1011.85 1011.64 1011.46 1011.33 1011.24 1011.18 1011.16 1011.17 1011.23 1011.33 1011.48 1011.69 1011.95 1012.27 1012.63 1013.01 1013.43 1013.85 1014.30 1014.75 1015.22
1010.33 1010.33 1010.45 1010.66 1010.91 1011.18 1011.43 1011.66 1011.86 1012.04 1012.22 1012.39 1012.57 1012.75 1012.90 1013.01 1013.06 1013.02 1012.91 1012.71 1012.46 1012.17 1011.87 1011.59 1011.34 1011.13 1010.97 1010.86 1010.79 1010.76 1010.78 1010.85 1010.97 1011.14 1011.37 1011.65 1011.97 1012.33 1012.71 1013.12 1013.55 1014.01 1014.48
1010.48 1010.42 1010.46 1010.57 1010.72 1010.89 1011.04 1011.19 1011.33 1011.48 1011.65 1011.85 1012.09 1012.34 1012.59 1012.81 1012.95 1013.00 1012.95 1012.80 1012.56 1012.27 1011.93 1011.60 1011.29 1011.01 1010.77 1010.59 1010.45 1010.37 1010.34 1010.37 1010.45 1010.59 1010.79 1011.04 1011.34 1011.67 1012.04 1012.44 1012.87 1013.32 1013.79
1010.67 1010.55 1010.52 1010.53 1010.57 1010.62 1010.67 1010.72 1010.78 1010.88 1011.03 1011.24 1011.51 1011.83 1012.16 1012.46 1012.70 1012.84 1012.87 1012.78 1012.59 1012.32 1011.99 1011.63 1011.28 1010.94 1010.64 1010.39 1010.19 1010.05 1009.96 1009.94 1009.98 1010.09 1010.26 1010.49 1010.77 1011.10 1011.46 1011.85 1012.28 1012.73 1013.20
1010.80 1010.66 1010.57 1010.50 1010.44 1010.39 1010.33 1010.28 1010.26 1010.30 1010.41 1010.60 1010.88 1011.23 1011.60 1011.97 1012.28 1012.51 1012.62 1012.62 1012.50 1012.28 1011.98 1011.64 1011.28 1010.93 1010.59 1010.29 1010.03 1009.83 1009.69 1009.62 1009.63 1009.71 1009.86 1010.08 1010.35 1010.67 1011.03 1011.43 1011.85 1012.29 1012.74
1010.80 1010.66 1010.53 1010.41 1010.28 1010.15 1010.01 1009.89 1009.80 1009.77 1009.83 1009.99 1010.25 1010.58 1010.97 1011.36 1011.72 1012.01 1012.20 1012.28 1012.25 1012.12 1011.90 1011.61 1011.29 1010.95 1010.61 1010.29 1010.01 1009.77 1009.60 1009.49 1009.47 1009.53 1009.67 1009.88 1010.15 1010.47 1010.83 1011.21 1011.62 1012.04 1012.47
1010.59 1010.46 1010.33 1010.19 1010.04 1009.87 1009.69 1009.52 1009.38 1009.31 1009.32 1009.43 1009.65 1009.94 1010.31 1010.69 1011.07 1011.39 1011.65 1011.81 1011.87 1011.84 1011.72 1011.53 1011.28 1011.00 1010.70 1010.40 1010.12 1009.88 1009.70 1009.59 1009.56 1009.62 1009.76 1009.96 1010.23 1010.55 1010.89 1011.26 1011.63 1012.02 1012.40
1010.13 1010.03 1009.92 1009.80 1009.66 1009.50 1009.32 1009.15 1009.00 1008.90 1008.88 1008.94 1009.10 1009.34 1009.65 1010.00 1010.36 1010.70 1011.00 1011.23 1011.38 1011.46 1011.45 1011.38 1011.24 1011.05 1010.82 1010.59 1010.36 1010.15 1010.00 1009.91 1009.91 1009.98 1010.13 1010.35 1010.61 1010.91 1011.24 1011.57 1011.90 1012.23 1012.56
1009.41 1009.35 1009.28 1009.21 1009.12 1009.00 1008.87 1008.74 1008.61 1008.52 1008.48 1008.51 1008.62 1008.80 1009.05 1009.34 1009.67 1010.00 1010.31 1010.59 1010.83 1011.00 1011.11 1011.15 1011.13 1011.06 1010.94 1010.80 1010.65 1010.53 1010.44 1010.42 1010.46 1010.58 1010.76 1010.99 1011.26 1011.55 1011.84 1012.13 1012.40 1012.67 1012.92
1008.52 1008.48 1008.47 1008.45 1008.43 1008.39 1008.33 1008.25 1008.18 1008.12 1008.09 1008.10 1008.17 1008.31 1008.50 1008.74 1009.02 1009.33 1009.64 1009.95 1010.23 1010.48 1010.69 1010.84 1010.94 1010.98 1010.98 1010.96 1010.93 1010.91 1010.93 1010.99 1011.12 1011.30 1011.54 1011.80 1012.08 1012.36 1012.62 1012.86 1013.07 1013.27 1013.45
1007.54 1007.52 1007.55 1007.59 1007.64 1007.68 1007.70 1007.70 1007.69 1007.67 1007.67 1007.69 1007.75 1007.85 1008.00 1008.19 1008.43 1008.71 1009.00 1009.31 1009.62 1009.92 1010.19 1010.42 1010.61 1010.77 1010.89 1010.98 1011.08 1011.19 1011.33 1011.52 1011.75 1012.03 1012.34 1012.66 1012.96 1013.24 1013.49 1013.68 1013.84 1013.97 1014.09
1006.57 1006.57 1006.62 1006.71 1006.82 1006.93 1007.02 1007.09 1007.14 1007.18 1007.21 1007.26 1007.32 1007.41 1007.53 1007.69 1007.90 1008.14 1008.41 1008.70 1009.01 1009.31 1009.61 1009.89 1010.15 1010.39 1010.61 1010.82 1011.04 1011.29 1011.57 1011.90 1012.26 1012.65 1013.05 1013.44 1013.79 1014.09 1014.33 1014.50 1014.62 1014.71 1014.79
1005.70 1005.70 1005.77 1005.89 1006.04 1006.19 1006.33 1006.45 1006.56 1006.64 1006.71 1006.78 1006.86 1006.96 1007.08 1007.23 1007.40 1007.61 1007.85 1008.11 1008.38 1008.67 1008.96 1009.26 1009.55 1009.84 1010.13 1010.45 1010.79 1011.17 1011.59 1012.05 1012.55 1013.07 1013.58 1014.05 1014.47 1014.81 1015.07 1015.25 1015.36 1015.43 1015.49
1004.99 1004.99 1005.06 1005.19 1005.35 1005.52 1005.68 1005.83 1005.96 1006.08 1006.18 1006.28 1006.39 1006.50 1006.63 1006.77 1006.93 1007.11 1007.31 1007.53 1007.76 1008.01 1008.27 1008.54 1008.84 1009.16 1009.51 1009.90 1010.34 1010.84 1011.39 1011.98 1012.62 1013.25 1013.87 1014.44 1014.94 1015.34 1015.65 1015.86 1015.99 1016.08 1016.15
1004.43 1004.42 1004.50 1004.62 1004.77 1004.93 1005.09 1005.25 1005.39 1005.52 1005.64 1005.77 1005.90 1006.04 1006.18 1006.33 1006.48 1006.63 1006.80 1006.96 1007.14 1007.34 1007.55 1007.80 1008.08 1008.41 1008.80 1009.25 1009.77 1010.37 1011.02 1011.74 1012.48 1013.23 1013.95 1014.62 1015.20 1015.68 1016.05 1016.32 1016.50 1016.63 1016.73
1003.99 1003.98 1004.04 1004.15 1004.29 1004.43 1004.57 1004.71 1004.85 1004.98 1005.12 1005.27 1005.42 1005.58 1005.74 1005.89 1006.03 1006.17 1006.30 1006.42 1006.55 1006.70 1006.87 1007.09 1007.36 1007.69 1008.11 1008.60 1009.19 1009.86 1010.60 1011.40 1012.23 1013.06 1013.86 1014.61 1015.26 1015.82 1016.26 1016.60 1016.86 1017.05 1017.22
1003.58 1003.58 1003.64 1003.73 1003.85 1003.97 1004.09 1004.22 1004.35 1004.49 1004.64 1004.80 1004.97 1005.14 1005.31 1005.46 1005.60 1005.72 1005.81 1005.91 1006.00 1006.11 1006.26 1006.46 1006.73 1007.08 1007.53 1008.06 1008.70 1009.42 1010.21 1011.07 1011.95 1012.83 1013.68 1014.47 1015.18 1015.80 1016.31 1016.73 1017.07 1017.34 1017.58
1003.16 1003.16 1003.21 1003.29 1003.40 1003.51 1003.62 1003.75 1003.88 1004.03 1004.19 1004.37 1004.55 1004.74 1004.91 1005.06 1005.18 1005.28 1005.36 1005.43 1005.50 1005.60 1005.75 1005.96 1006.25 1006.64 1007.12 1007.70 1008.37 1009.13 1009.95 1010.82 1011.71 1012.59 1013.45 1014.26 1014.99 1015.65 1016.22 1016.71 1017.12 1017.48 1017.79
Thickness
5734 5733 5732 5731 5730 5730 5730 5730 5730 5730 5728 5729 5731 5732 5732 5732 5732 5732 5732 5732 5732 5733 5733 5733 5733 5734 5734 5736 5737 5736 5734 5733 5732 5731 5730 5728 5727 5726 5724 5722 5721 5720 5719
5730 5729 5729 5729 5728 5728 5728 5728 5728 5728 5728 5728 5729 5730 5732 5731 5731 5730 5731 5732 5732 5732 5732 5732 5731 5732 5733 5734 5735 5736 5735 5734 5733 5732 5730 5729 5728 5727 5725 5724 5722 5720 5719
5727 5726 5726 5726 5726 5726 5725 5725 5724 5725 5724 5725 5725 5727 5728 5729 5729 5729 5729 5729 5730 5730 5730 5730 5730 5731 5732 5732 5733 5734 5734 5734 5733 5732 5731 5730 5729 5728 5726 5725 5724 5722 5719
5724 5723 5722 5722 5722 5721 5720 5719 5719 5719 5719 5720 5721 5722 5724 5724 5725 5726 5726 5726 5727 5727 5727 5727 5728 5729 5730 5731 5732 5733 5733 5733 5732 5732 5732 5731 5730 5729 5728 5726 5725 5723 5721
5720 5719 5719 5717 5716 5715 5714 5714 5713 5713 5713 5714 5717 5719 5720 5721 5722 5723 5723 5723 5724 5724 5724 5724 5725 5727 5728 5730 5731 5732 5733 5733 5732 5732 5731 5731 5730 5730 5729 5727 5726 5725 5723
5716 5716 5714 5712 5711 5710 5708 5708 5706 5707 5707 5709 5711 5714 5716 5718 5720 5721 5722 5722 5722 5722 5722 5722 5723 5724 5726 5727 5729 5730 5731 5731 5731 5731 5731 5730 5730 5730 5729 5728 5727 5726 5724
5713 5711 5709 5707 5706 5705 5704 5703 5701 5701 5701 5703 5703 5705 5709 5713 5715 5718 5720 5720 5721 5722 5722 5721 5721 5722 5723 5725 5726 5727 5728 5729 5729 5730 5730 5729 5729 5729 5729 5728 5727 5726 5725
5709 5707 5705 5703 5701 5699 5698 5697 5696 5695 5696 5698 5697 5696 5698 5704 5710 5714 5716 5717 5718 5720 5720 5720 5720 5721 5722 5723 5724 5725 5726 5727 5728 5729 5728 5728 5728 5728 5728 5727 5727 5726 5726
5704 5703 5702 5700 5697 5695 5694 5693 5692 5691 5691 5693 5694 5693 5692 5694 5700 5708 5711 5713 5714 5716 5717 5718 5719 5720 5721 5721 5722 5722 5723 5725 5726 5727 5727 5726 5726 5726 5726 5726 5725 5725 5724
5699 5697 5696 5695 5694 5692 5691 5689 5688 5688 5689 5688 5689 5691 5692 5694 5693 5697 5704 5708 5709 5711 5713 5715 5717 5718 5719 5720 5721 5722 5722 5723 5724 5724 5724 5724 5724 5724 5724 5724 5723 5722 5722
5689 5689 5689 5688 5688 5688 5687 5686 5685 5684 5685 5686 5686 5687 5687 5688 5689 5690 5692 5697 5701 5706 5709 5712 5715 5716 5717 5718 5719 5719 5720 5720 5721 5721 5722 5722 5722 5722 5722 5721 5721 5719 5718
5676 5676 5677 5679 5679 5680 5680 5680 5681 5681 5681 5682 5683 5685 5685 5685 5684 5685 5686 5688 5692 5699 5705 5709 5711 5712 5714 5714 5715 5716 5716 5716 5717 5718 5719 5719 5720 5720 5719 5718 5717 5716 5715
5660 5661 5663 5665 5668 5670 5671 5672 5674 5676 5677 5678 5680 5682 5683 5684 5684 5683 5682 5683 5686 5693 5698 5703 5705 5707 5708 5709 5710 5711 5711 5712 5713 5714 5715 5716 5717 5717 5716 5715 5714 5713 5712
5644 5646 5648 5651 5654 5658 5662 5664 5666 5668 5670 5673 5675 5678 5679 5680 5681 5682 5681 5680 5681 5685 5688 5693 5697 5700 5702 5703 5703 5704 5705 5706 5708 5709 5711 5712 5712 5712 5712 5711 5710 5708 5708
5629 5631 5633 5636 5640 5644 5647 5652 5656 5659 5661 5665 5669 5672 5674 5675 5676 5678 5679 5679 5678 5677 5679 5685 5688 5693 5695 5696 5696 5697 5698 5698 5700 5702 5704 5704 5705 5704 5704 5703 5702 5702 5701
5612 5614 5617 5620 5624 5629 5633 5636 5642 5648 5651 5656 5660 5663 5666 5668 5670 5672 5674 5676 5676 5674 5674 5678 5682 5686 5689 5690 5690 5690 5689 5689 5690 5692 5694 5695 5695 5695 5695 5694 5693 5693 5693
5597 5598 5601 5604 5607 5612 5617 5623 5627 5632 5639 5645 5650 5654 5657 5660 5663 5665 5668 5671 5672 5671 5671 5673 5675 5679 5682 5683 5683 5682 5681 5680 5680 5681 5683 5684 5685 5685 5686 5685 5684 5684 5684
5583 5583 5584 5587 5590 5595 5600 5607 5614 5619 5624 5633 5639 5644 5648 5651 5654 5658 5661 5664 5667 5668 5668 5667 5668 5671 5675 5676 5676 5674 5672 5670 5669 5670 5672 5673 5674 5675 5676 5676 5676 5675 5676
5570 5569 5569 5571 5574 5578 5583 5590 5598 5605 5612 5619 5627 5632 5637 5640 5645 5650 5654 5658 5661 5662 5663 5662 5662 5665 5668 5669 5668 5666 5662 5659 5658 5658 5659 5661 5662 5664 5665 5666 5666 5666 5667
5554 5555 5556 5558 5559 5562 5566 5572 5579 5588 5596 5604 5613 5620 5623 5628 5634 5641 5645 5651 5654 5656 5657 5657 5657 5659 5662 5663 5661 5658 5653 5649 5647 5646 5647 5648 5649 5651 5653 5655 5655 5655 5656
5539 5541 5543 5545 5547 5548 5552 5557 5563 5571 5579 5588 5597 5605 5610 5616 5624 5631 5637 5643 5647 5649 5651 5653 5654 5655 5657 5657 5656 5652 5647 5640 5635 5635 5636 5636 5638 5640 5641 5643 5644 5644 5645
5523 5527 5531 5535 5537 5541 5544 5547 5550 5557 5565 5572 5581 5589 5597 5605 5614 5621 5628 5636 5642 5645 5648 5650 5652 5654 5655 5655 5652 5647 5642 5637 5630 5625 5627 5624 5627 5628 5629 5631 5632 5633 5634
5508 5514 5520 5525 5529 5533 5536 5538 5542 5545 5551 5559 5567 5574 5584 5594 5603 5611 5620 5629 5636 5642 5647 5650 5652 5654 5654 5654 5649 5642 5639 5635 5630 5623 5622 5616 5616 5618 5619 5620 5622 5623 5622
5493 5501 5509 5516 5521 5526 5528 5531 5534 5538 5542 5548 5555 5562 5571 5580 5590 5600 5610 5620 5629 5636 5641 5645 5650 5653 5654 5653 5650 5644 5636 5628 5621 5617 5618 5612 5610 5609 5609 5610 5612 5613 5613
5478 5487 5497 5505 5511 5518 5522 5524 5527 5530 5534 5540 5546 5552 5559 5569 5580 5590 5601 5611 5620 5627 5633 5639 5644 5648 5649 5648 5645 5637 5630 5625 5616 5610 5611 5609 5604 5603 5602 5601 5602 5604 5605
5466 5475 5484 5493 5500 5507 5513 5517 5520 5522 5527 5533 5539 5545 5551 5558 5567 5578 5591 5603 5612 5620 5626 5631 5636 5639 5641 5641 5640 5639 5634 5626 5618 5608 5606 5605 5601 5600 5595 5593 5594 5595 5597